Location: Allerheiligen
(47.7333°N, 9.4000°E)
Time: 16:36:13
(UTC+00:00)

Cosmos 2219 - Visible Passes

Search period start: 11 June 2026 00:00
Search period end: 21 June 2026 00:00
Orbit: 834 x 857 km, 71.1° (Epoch: 11 June)

Date Brightness Start Highest point End Pass type
(mag) Time Alt. Az. Time Alt. Az. Time Alt. Az.
11 Jun 6.1 21:29:09 10° W 21:32:50 17° NW 21:36:32 10° N visible
12 Jun 6.2 21:15:05 10° W 21:18:50 18° NW 21:22:36 10° N visible
13 Jun 6.2 02:35:33 10° N 02:39:48 21° NE 02:44:02 10° E visible
13 Jun 6.2 21:01:02 10° W 21:04:50 18° NW 21:08:40 10° N visible
14 Jun 6.2 02:21:36 10° N 02:25:48 21° NE 02:29:59 10° E visible
14 Jun 6.2 20:46:58 10° W 20:50:50 19° NW 20:54:44 10° N visible
15 Jun 6.2 02:07:40 10° N 02:11:48 20° NE 02:15:57 10° E visible
15 Jun 6.3 20:32:55 10° W 20:36:50 19° NW 20:40:47 10° N visible
16 Jun 6.2 01:53:44 10° N 01:57:49 20° NE 02:01:54 10° E visible
16 Jun 6.3 20:18:51 10° W 20:22:50 19° NW 20:26:51 10° N visible
17 Jun 6.2 01:39:47 10° N 01:43:49 19° NE 01:47:50 10° E visible
17 Jun 6.3 20:04:48 10° W 20:08:50 20° NW 20:12:55 10° N visible
18 Jun 6.1 01:25:51 10° N 01:29:49 19° NE 01:33:47 10° E visible
19 Jun 6.1 01:11:54 10° N 01:15:49 19° NE 01:19:44 10° E visible
20 Jun 6.0 00:57:58 10° N 01:01:49 18° NE 01:05:40 10° E visible
20 Jun 3.5 02:41:13 10° NNW 02:46:54 78° ENE 02:52:36 10° SSE visible
